Regional Weather Roundup
Issued by NWS

Home | Current Version | Previous Version | Text Only | Print | Product List | Glossary On
Versions: 1 2 3 4 5 6 7 8 9 10 11 12 13 14 15 16 17 18 19 20 21 22 23 24 25 26 27 28 29 30 31 32 33 34 35 36 37 38 39 40 41 42 43 44 45 46 47 48 49 50
000
ASUS43 KTOP 180408
RWRKS

WEATHER ROUNDUP FOR KANSAS
NATIONAL WEATHER SERVICE GOODLAND KS
1100 PM CDT FRI APR 17 2015

NOTE:  "FAIR" INDICATES FEW OR NO CLOUDS BELOW 12,000 FEET WITH NO
SIGNIFICANT WEATHER AND/OR OBSTRUCTIONS TO VISIBILITY.

KSZ001>006-013>018-027>032-041>047-180500-
NORTHWEST KANSAS

CITY           SKY/WX    TMP DP  RH WIND       PRES   REMARKS
GOODLAND       CLOUDY    49  47  93 NE15      29.97F
HAYS           CLOUDY    61  52  72 SE9       29.95S
HILL CITY      TSTM      58  50  75 VRB3      29.96F
RUSSELL        CLOUDY    62  58  86 SE10      29.94R
$$

KSZ061>065-074>080-084>089-180500-
SOUTHWEST KANSAS

CITY           SKY/WX    TMP DP  RH WIND       PRES   REMARKS
DODGE CITY     PTCLDY    59  55  87 S12       29.94S
ELKHART          N/A    N/A N/A N/A MISG        N/A
GARDEN CITY    CLOUDY    56  54  93 S10       29.95R
GREAT BEND     CLOUDY    63  55  77 S12       29.96R
LIBERAL        MOCLDY    61  52  72 SW8       29.96S
PRATT          CLOUDY    61  54  77 SE7       29.97F
$$

KSZ066>073-081>083-090>101-180500-
SOUTHEAST KANSAS

CITY           SKY/WX    TMP DP  RH WIND       PRES   REMARKS
CHANUTE        CLOUDY    66  61  84 E3        29.97S
COFFEYVILLE    CLOUDY    63  61  93 NE6       29.95F
HUTCHINSON     CLOUDY    62  56  80 S5        29.96S
MEDICINE LODGE   N/A     63  57  81 E6        29.94F
NEWTON         CLOUDY    63  54  72 SE3       29.98F
PARSONS        CLOUDY    66  63  90 CALM      29.97F
WICHITA INTL   CLOUDY    65  58  78 CALM      29.95F
WICHITA JABRA  CLOUDY    64  56  75 CALM      29.95F
WICHITA MCCONL CLOUDY    65  57  75 CALM      29.95F
WINFIELD       CLOUDY    64  60  87 MISG      29.96F
$$

KSZ007>012-019>026-033>040-048>060-102>105-180500-
NORTHEAST KANSAS

CITY           SKY/WX    TMP DP  RH WIND       PRES   REMARKS
CONCORDIA      CLOUDY    62  57  83 E6        29.96S
EMPORIA        CLOUDY    62  58  86 E7        29.96F
LAWRENCE       CLOUDY    59  57  93 CALM      29.98S
MANHATTAN      CLOUDY    66  58  75 CALM      29.96S
MARYSVILLE     CLOUDY    61  57  88 E7        29.97F
OLATHE IND     CLOUDY    62  57  83 CALM      29.99S
OLATHE EXE     CLOUDY    67  58  72 CALM      29.98S
SALINA         CLOUDY    64  58  80 S8        29.96R
TOPEKA BILLARD CLOUDY    62  59  90 CALM      29.97F
TOPEKA FORBES  CLOUDY    60  56  86 E5        29.97F
$$


USA.gov is the U.S. government's official web portal to all federal, state and local government web resources and services.